Location: Santa Giusta
(39.8800°N, 8.6069°E)
Time: 17:11:34
(UTC+00:00)

YAOGAN 1 - Pass Details

Date: 02 February 2023
Orbit: 616 x 618 km, 97.8° (Epoch: 01 April)

Event Time Altitude Azimuth Distance (km) Brightness Sun altitude
Rises 17:46:51 0° 149° (SSE) 2,877 5.8 -12.1°
Reaches altitude 10° 17:49:06 10° 143° (SE) 1,976 4.9 -12.5°
Maximum altitude 17:53:09 42° 72° (ENE) 882 2.9 -13.2°
Drops below altitude 10° 17:57:15 10° 2° (N) 1,992 5.0 -14.0°
Sets 17:59:31 0° 355° (N) 2,903 6.0 -14.4°
